Погода в Манаме

Бахрейн     26°13′22″N   50°35′14″E
темп.,
°C
ветер,
м/с
пор.,
м/с
влажн.,
%
обл.,
%
осадки,
мм/ч
давл.,
гПа
погр.,
м
10 августа, ср
ср1000:00+35з445530 0.0 99335
03:00+35зсз46545 0.0 99369
06:00+34сз610635 0.0 994256
09:00+35ссз711655 0.0 995392
12:00+35ссз710654 0.0 994346
15:00+34ссз686855 0.0 994346
18:00+34ссз457582 0.0 993196
21:00+34с347753 0.0 995127
11 августа, чт
чт1100:00+33всв33795 0.0 994205
03:00+33в347595 0.0 994156
06:00+33сз22746 0.0 99570
09:00+34с33691 0.0 996216
12:00+35ссв44665 0.0 996290
15:00+35ссв44621 0.0 995253
18:00+34с33715 0.0 995111
21:00+34св226752 0.0 99627
12 августа, пт
пт1200:00+34всв12654 0.0 99511
03:00+34ююз33655 0.0 99428
06:00+34зюз23634 0.0 99532
09:00+36сз234882 0.0 99699
12:00+36ссв43503 0.0 995237
15:00+36ссв335268 0.0 994208
18:00+35ссз44576 0.0 99455
21:00+34с676521 0.0 995124
13 августа, сб
сб1300:00+34всв567148 0.0 995164
03:00+34св1169100 0.0 99411
06:00+34сз33660 0.0 99545
09:00+35всв5764100 0.0 996363
12:00+35всв776584 0.0 996474
15:00+35всв89694 0.0 995370
18:00+34в910723 0.0 995321
21:00+34юв710675 0.0 996235
14 августа, вс
вс1400:00+34в226795 0.0 99648
03:00+33св557231 0.0 997354
06:00+33в4471100 0.0 998247
09:00+35вюв226389 0.0 999213
12:00+35сз225789 0.0 999477
15:00+36св3256100 0.0 997362
18:00+35в5563100 0.0 998133
21:00+34юв4563100 0.0 99995